Weather History for Glasgow, MT

Change the Weather History Date:

Wednesday, March 7, 2012

  Actual Average Record
Temperature  
Mean Temperature 28 °F 27 °F  
Max Temperature 37 °F 37 °F 62 °F (1977)
Min Temperature 18 °F 17 °F -32 °F (1935)
Degree Days  
Heating Degree Days 37 38  
Month to date heating degree days 262 275  
Since 1 July heating degree days 5763 6645  
Cooling Degree Days 0 0  
Month to date cooling degree days 0 0  
Year to date cooling degree days 0 0  
Moisture  
Dew Point 17 °F    
Average Humidity 63    
Maximum Humidity 81    
Minimum Humidity 44    
Precipitation  
Precipitation T in 0.01 in 0.60 in (1898)
Month to date precipitation 0.35 0.07  
Year to date precipitation 1.24 0.70  
Snow  
Snow T in 0.20 in 4.10 in (1999)
Month to date snowfall 4.2 1.2  
Since 1 July snowfall 25.6 28.2  
Snow Depth 0.00 in    
Sea Level Pressure  
Sea Level Pressure 30.07 in    
Wind  
Wind Speed 10 mph (West)    
Max Wind Speed 25 mph    
Max Gust Speed 32 mph    
Visibility 10 miles    
Events      
T = Trace of Precipitation, MM = Missing Value Source: NWS Daily Summary

Daily Weather History Graph

Daily Weather History Graph

Search for Another Location

Airport:

Trip Planner

Search our weather history database for the weather conditions in past years. The results will help you decide how hot, cold, wet, or windy it might be!

Date:

Astronomy

Mar. 07, 2012 Rise Set
Actual Time 6:34 AM MST 6:00 PM MST
Civil Twilight 6:03 AM MST 6:31 PM MST
Nautical Twilight 5:27 AM MST 7:07 PM MST
Astronomical Twilight 4:51 AM MST 7:44 PM MST
Moon 5:42 PM MST (3/7) 5:46 AM MST (3/7)
Length of Visible Light 12h 28m
Length of Day
11h 26m
Waxing Gibbous, 99% of the Moon is Illuminated
Mar 7
Waxing Gibbous
Mar 8
Full
Mar 14
Last Quarter
Mar 22
New
Mar 30
First Quarter

Hourly Weather History & Observations

Time (MST) Temp. Windchill Dew Point Humidity Pressure Visibility Wind Dir Wind Speed Gust Speed Precip Events Conditions
12:53 AM 21.0 °F 7.6 °F 12.9 °F 71% 30.05 in 10.0 mi NW 15.0 mph - N/A   Overcast
1:53 AM 21.0 °F 11.4 °F 14.0 °F 74% 30.06 in 10.0 mi NW 8.1 mph - N/A   Overcast
2:53 AM 21.0 °F 11.4 °F 15.1 °F 78% 30.05 in 10.0 mi NW 8.1 mph - N/A   Overcast
3:53 AM 19.9 °F 12.1 °F 14.0 °F 78% 30.05 in 10.0 mi WNW 5.8 mph - N/A   Overcast
4:53 AM 19.9 °F 12.1 °F 14.0 °F 78% 30.05 in 10.0 mi West 5.8 mph - N/A   Overcast
5:53 AM 19.9 °F 12.1 °F 12.9 °F 74% 30.05 in 10.0 mi West 5.8 mph - N/A   Overcast
6:10 AM 19.4 °F - 12.2 °F 74% 29.94 in 10.0 mi Calm Calm - N/A   Scattered Clouds
6:53 AM 18.0 °F - 12.9 °F 81% 30.05 in 10.0 mi Calm Calm - N/A   Clear
7:53 AM 21.0 °F 12.4 °F 14.0 °F 74% 30.04 in 10.0 mi South 6.9 mph - N/A   Scattered Clouds
8:53 AM 23.0 °F 13.9 °F 15.1 °F 72% 30.05 in 10.0 mi South 8.1 mph - N/A   Clear
9:53 AM 26.1 °F 17.6 °F 16.0 °F 66% 30.03 in 10.0 mi SSW 8.1 mph - N/A   Clear
10:53 AM 28.0 °F 18.1 °F 18.0 °F 66% 30.02 in 10.0 mi SSW 11.5 mph - N/A   Mostly Cloudy
11:53 AM 32.0 °F 22.5 °F 19.0 °F 59% 30.00 in 10.0 mi West 12.7 mph 19.6 mph N/A   Overcast
12:08 PM 32.0 °F 20.5 °F 19.4 °F 60% 29.91 in 10.0 mi WNW 18.4 mph 23.0 mph N/A   Overcast
12:53 PM 34.0 °F 23.0 °F 19.0 °F 54% 29.99 in 10.0 mi WNW 18.4 mph - N/A   Mostly Cloudy
1:53 PM 35.1 °F 24.5 °F 18.0 °F 50% 30.01 in 10.0 mi WNW 18.4 mph 26.5 mph N/A   Clear
2:53 PM 35.1 °F 23.3 °F 16.0 °F 46% 30.04 in 10.0 mi NW 23.0 mph 31.1 mph N/A   Scattered Clouds
3:53 PM 35.1 °F 23.5 °F 16.0 °F 46% 30.05 in 10.0 mi NW 21.9 mph - N/A   Overcast
4:53 PM 35.1 °F 25.9 °F 18.0 °F 50% 30.06 in 10.0 mi WNW 13.8 mph - N/A   Overcast
5:53 PM 34.0 °F 25.5 °F 19.0 °F 54% 30.09 in 10.0 mi WNW 11.5 mph - N/A   Overcast
6:53 PM 33.1 °F 25.5 °F 19.9 °F 59% 30.13 in 10.0 mi West 9.2 mph - N/A   Overcast
7:53 PM 33.1 °F 26.1 °F 21.0 °F 61% 30.15 in 10.0 mi West 8.1 mph - N/A   Overcast
8:53 PM 30.9 °F 22.8 °F 21.0 °F 67% 30.18 in 10.0 mi WNW 9.2 mph - N/A   Clear
9:53 PM 28.0 °F 22.8 °F 21.0 °F 75% 30.21 in 10.0 mi West 4.6 mph - N/A   Clear
10:53 PM 27.0 °F 23.0 °F 21.0 °F 78% 30.22 in 10.0 mi WSW 3.5 mph - N/A   Clear
11:53 PM 26.1 °F 19.4 °F 21.0 °F 81% 30.23 in 10.0 mi SW 5.8 mph - N/A   Clear